Weather History for EBAW - February, 2013

Change the Weather History Date:

Wednesday, February 6, 2013

  Actual Average Record
Temperature  
Mean Temperature 37 °F -  
Max Temperature 41 °F 45 °F 59 °F (2004)
Min Temperature 33 °F 35 °F 15 °F (2012)
Degree Days  
Heating Degree Days 28    
Moisture  
Dew Point 33 °F    
Average Humidity 82    
Maximum Humidity 100    
Minimum Humidity 61    
Precipitation  
Precipitation 0.00 in - - ()
Sea Level Pressure  
Sea Level Pressure 29.51 in    
Wind  
Wind Speed 11 mph ()    
Max Wind Speed 17 mph    
Max Gust Speed 24 mph    
Visibility 6.7 miles    
Events Rain , Snow    
Averages and records for this station are not official NWS values.
T = Trace of Precipitation, MM = Missing Value Source: Averaged Metar Reports

Daily Weather History Graph

Daily Weather History Graph

Search for Another Location

Airport or City:

Trip Planner

Search our weather history database for the weather conditions in past years. The results will help you decide how hot, cold, wet, or windy it might be!

Date:

Astronomy

Feb. 06, 2013 Rise Set
Actual Time 8:11 AM CET 5:41 PM CET
Civil Twilight 7:36 AM CET 6:17 PM CET
Nautical Twilight 6:56 AM CET 6:56 PM CET
Astronomical Twilight 6:18 AM CET 7:35 PM CET
Moon 4:53 AM CET (2/6) 1:29 PM CET (2/6)
Length of Visible Light 10h 41m
Length of Day
9h 30m
Waning Crescent, 19% of the Moon is Illuminated
Feb 6
Waning Crescent
Feb 10
New
Feb 17
First Quarter
Feb 25
Full
Mar 4
Last Quarter

Hourly Weather History & Observations

Time (CET) Temp. Windchill Dew Point Humidity Pressure Visibility Wind Dir Wind Speed Gust Speed Precip Events Conditions
12:20 AM 35.6 °F 26.6 °F 32.0 °F 87% 29.36 in - SSW 13.8 mph - N/A Rain Light Rain
12:50 AM 35.6 °F 26.2 °F 33.8 °F 93% 29.33 in 3.7 mi SSW 15.0 mph - N/A Rain Light Rain
1:00 AM 35 °F - 33 °F 92% 29.35 in 4 mi SSW 13.4 mph - - Rain Light Rain
1:20 AM 35.6 °F 27.1 °F 33.8 °F 93% 29.33 in 5.0 mi SSW 12.7 mph - N/A Rain Light Rain
1:50 AM 35.6 °F 27.1 °F 33.8 °F 93% 29.30 in 6.2 mi SSW 12.7 mph - N/A   Overcast
2:20 AM 35.6 °F 26.6 °F 33.8 °F 93% 29.30 in 6.2 mi SSW 13.8 mph - N/A Rain Light Rain Showers
2:50 AM 35.6 °F 27.5 °F 33.8 °F 93% 29.30 in 6.2 mi SSW 11.5 mph - N/A   Overcast
3:20 AM 35.6 °F 28.0 °F 33.8 °F 93% 29.30 in 6.2 mi SW 10.4 mph - N/A Rain Light Rain Showers
3:50 AM 35.6 °F 27.5 °F 33.8 °F 93% 29.27 in 5.6 mi SW 11.5 mph - N/A Rain Light Rain Showers
4:00 AM 36 °F - 34 °F 88% 29.29 in 6 mi SW 11.2 mph - - Rain Light Rain
4:20 AM 35.6 °F 28.0 °F 33.8 °F 93% 29.27 in 6.2 mi SW 10.4 mph - N/A Rain Light Rain Showers
4:50 AM 33.8 °F 26.4 °F 33.8 °F 100% 29.27 in 6.2 mi SW 9.2 mph - N/A Rain Light Rain
5:20 AM 33.8 °F 26.4 °F 33.8 °F 100% 29.27 in 6.2 mi SW 9.2 mph - N/A   Overcast
5:50 AM 35.6 °F 29.9 °F 33.8 °F 93% 29.27 in 6.2 mi West 6.9 mph - N/A Rain Light Rain Showers
6:20 AM 35.6 °F 29.9 °F 33.8 °F 93% 29.27 in 4.3 mi West 6.9 mph - N/A Rain Light Rain Showers
6:50 AM 35.6 °F 28.6 °F 33.8 °F 93% 29.27 in 6.2 mi WNW 9.2 mph - N/A   Scattered Clouds
7:00 AM 36 °F - 34 °F 90% 29.29 in 6 mi WNW 8.9 mph - - Rain Light Rain Showers
7:20 AM 37.4 °F 30.3 °F 35.6 °F 93% 29.30 in 6.2 mi NNW 10.4 mph - N/A   Mostly Cloudy
7:50 AM 35.6 °F 27.5 °F 33.8 °F 93% 29.33 in 6.2 mi North 11.5 mph - N/A Rain Light Rain
8:20 AM 35.6 °F 27.1 °F 32.0 °F 87% 29.36 in 6.2 mi North 12.7 mph 24.2 mph N/A Rain Light Rain
8:50 AM 33.8 °F 23.5 °F 32.0 °F 93% 29.39 in 4.3 mi North 16.1 mph - N/A Rain , Snow Light Rain
9:20 AM 33.8 °F 23.5 °F 32.0 °F 93% 29.42 in 6.2 mi NNE 16.1 mph - N/A   Mostly Cloudy
9:50 AM 35.6 °F 25.9 °F 32.0 °F 87% 29.44 in 6.2 mi North 16.1 mph - N/A   Mostly Cloudy
10:00 AM 35 °F - 32 °F 85% 29.46 in 9 mi North 15.7 mph - -   Light Ice Pellets
10:20 AM 35.6 °F 25.5 °F 32.0 °F 87% 29.47 in 6.2 mi North 17.3 mph - N/A   Mostly Cloudy
10:50 AM 35.6 °F 25.9 °F 30.2 °F 81% 29.50 in 6.2 mi NNE 16.1 mph - N/A   Mostly Cloudy
11:20 AM 35.6 °F 26.6 °F 30.2 °F 81% 29.53 in 6.2 mi North 13.8 mph - N/A   Mostly Cloudy
11:50 AM 35.6 °F 27.1 °F 30.2 °F 81% 29.56 in 6.2 mi North 12.7 mph - N/A   Scattered Clouds
12:20 PM 37.4 °F 29.8 °F 30.2 °F 75% 29.56 in 6.2 mi North 11.5 mph - N/A   Partly Cloudy
12:50 PM 39.2 °F 31.6 °F 32.0 °F 75% 29.56 in 6.2 mi North 12.7 mph - N/A   Partly Cloudy
1:00 PM 39 °F - 32 °F 67% 29.58 in 16 mi North 13.4 mph - -   Partly Cloudy
1:20 PM 41.0 °F 33.5 °F 32.0 °F 70% 29.59 in 6.2 mi North 13.8 mph - N/A   Partly Cloudy
1:50 PM 41.0 °F 35.2 °F 30.2 °F 65% 29.59 in 6.2 mi North 9.2 mph - N/A   Partly Cloudy
2:20 PM 42.8 °F 36.6 °F 30.2 °F 61% 29.62 in 6.2 mi North 11.5 mph - N/A   Scattered Clouds
2:50 PM 41.0 °F 34.7 °F 32.0 °F 70% 29.62 in 6.2 mi North 10.4 mph - N/A   Scattered Clouds
3:20 PM 41.0 °F 34.7 °F 32.0 °F 70% 29.62 in 6.2 mi North 10.4 mph - N/A   Scattered Clouds
3:50 PM 41.0 °F 34.7 °F 32.0 °F 70% 29.62 in 6.2 mi NNW 10.4 mph - N/A   Partly Cloudy
4:00 PM 41 °F - 33 °F 62% 29.64 in 16 mi NNW 11.2 mph - -   Partly Cloudy
4:20 PM 41.0 °F 35.2 °F 32.0 °F 70% 29.62 in 6.2 mi NNW 9.2 mph - N/A   Partly Cloudy
4:50 PM 41.0 °F 33.9 °F 32.0 °F 70% 29.65 in 6.2 mi NNW 12.7 mph - N/A   Partly Cloudy
5:20 PM 41.0 °F 35.8 °F 30.2 °F 65% 29.65 in 6.2 mi NNW 8.1 mph - N/A   Scattered Clouds
5:50 PM 41.0 °F 37.1 °F 30.2 °F 65% 29.65 in 6.2 mi NNW 5.8 mph - N/A   Mostly Cloudy
6:20 PM 41.0 °F 34.3 °F 32.0 °F 70% 29.68 in 6.2 mi North 11.5 mph - N/A   Mostly Cloudy
6:50 PM 39.2 °F 35.0 °F 32.0 °F 75% 29.68 in 6.2 mi NNW 5.8 mph - N/A   Partly Cloudy
7:00 PM 39 °F - 32 °F 68% 29.71 in 16 mi NNW 4.5 mph - -   Partly Cloudy
7:20 PM 39.2 °F 33.6 °F 33.8 °F 81% 29.71 in 6.2 mi NNW 8.1 mph - N/A   Scattered Clouds
7:50 PM 39.2 °F 33.6 °F 32.0 °F 75% 29.71 in 6.2 mi NNW 8.1 mph - N/A   Scattered Clouds
8:20 PM 39.2 °F 32.5 °F 33.8 °F 81% 29.71 in 6.2 mi NNW 10.4 mph - N/A   Scattered Clouds
8:50 PM 39.2 °F 32.0 °F 33.8 °F 81% 29.74 in 6.2 mi NNW 11.5 mph 23.0 mph N/A Rain Light Rain Showers
9:20 PM 39.2 °F 33.0 °F 33.8 °F 81% 29.74 in 6.2 mi NW 9.2 mph - N/A   Partly Cloudy
9:50 PM 39.2 °F 34.2 °F 33.8 °F 81% 29.74 in 6.2 mi NNW 6.9 mph - N/A   Scattered Clouds
10:00 PM 39 °F - 34 °F 77% 29.77 in 12 mi NNW 6.7 mph - - Rain Light Rain Showers
10:20 PM 39.2 °F 33.6 °F 33.8 °F 81% 29.77 in 6.2 mi NNW 8.1 mph - N/A   Partly Cloudy
10:50 PM 39.2 °F 32.5 °F 33.8 °F 81% 29.77 in 5.0 mi NNW 10.4 mph - N/A Rain Light Rain Showers
11:20 PM 39.2 °F 33.6 °F 33.8 °F 81% 29.80 in 6.2 mi NNW 8.1 mph - N/A   Mostly Cloudy
11:50 PM 39.2 °F 33.6 °F 33.8 °F 81% 29.80 in - NNW 8.1 mph - N/A   Clear